Quillayute, WA
on Friday, November 16, 2012

Friday
Previous Day Next Day
Daily Summary
 ActualAverageRecord
Temperature
Mean Temperature °F 44°F  
Max Temperature 54°F 50°F 59°F (2008)
Min Temperature 39°F 38°F 21°F (2000)
Degree Days
Heating Degree Days 18 21  
Month to date heating degree days 313  
Since 1 July heating degree days 1403  
Cooling Degree Days 0 0  
Month to date cooling degree days 0  
Year to date cooling degree days 19  
Moisture
Dew Point 43°F   
Average Humidity 88    
Maximum Humidity 100    
Minimum Humidity 63    
Precipitation
Precipitation 0.01 in 0.54 in 3.31 in (2009)
Month to date precipitation 8.09  
Year to date precipitation 79.12  
Wind
Wind Speed 6 mph   
Max Wind Speed 18 mph   
Max Gust Speed 33 mph   
Visibility 5 miles   
Events Rain   

Key: T is trace of precipitation, MM is missing value
Source: NWS Daily Summary
Time(PST)TemperatureDew PointHumidity Pressure Visibility Wind DirectionWind SpeedGust SpeedPrecipitationEvents Conditions
12:44 AM 41.0°F 41.0°F 100% 29.91 in 4.0 miles Calm Calm - N/A   Overcast
12:53 AM 41.0°F 39.9°F 96% 29.91 in 4.0 miles Calm Calm - N/A   Overcast
1:18 AM 39.2°F 39.2°F 100% 29.90 in 4.0 miles Calm Calm - N/A   Overcast
1:53 AM 39.9°F 39.9°F 100% 29.90 in 4.0 miles Calm Calm - N/A   Overcast
2:53 AM 39.9°F 39.9°F 100% 29.89 in 5.0 miles East 4.6 mph - N/A   Overcast
3:53 AM 39.2°F 39.2°F 100% 29.86 in 6.0 miles East 4.6 mph - N/A   Overcast
4:53 AM 41.0°F 39.9°F 96% 29.86 in 6.0 miles East 3.5 mph - N/A   Overcast
5:53 AM 39.0°F 39.0°F 100% 29.85 in 5.0 miles Calm Calm - N/A   Overcast
6:22 AM 39.2°F 39.2°F 100% 29.84 in 6.0 miles ENE 3.5 mph - N/A   Overcast
6:32 AM 41.0°F 39.2°F 93% 29.84 in 6.0 miles East 5.8 mph - N/A   Overcast
6:53 AM 41.0°F 39.9°F 96% 29.84 in 6.0 miles East 4.6 mph - N/A   Overcast
7:53 AM 39.9°F 39.0°F 97% 29.86 in 4.0 miles Calm Calm - N/A   Mostly Cloudy
8:53 AM 44.1°F 43.0°F 96% 29.84 in 5.0 miles ESE 6.9 mph - N/A   Overcast
9:53 AM 46.9°F 44.1°F 90% 29.84 in 5.0 miles SSE 8.1 mph - N/A   Overcast
10:53 AM 48.0°F 43.0°F 83% 29.83 in 5.0 miles SSE 8.1 mph - N/A   Haze
11:53 AM 50.0°F 43.0°F 77% 29.82 in 5.0 miles Variable 5.8 mph - N/A   Haze
12:53 PM 52.0°F 42.1°F 69% 29.79 in 5.0 miles SE 6.9 mph - N/A   Haze
1:53 PM 52.0°F 42.1°F 69% 29.75 in 5.0 miles SE 6.9 mph - N/A   Haze
2:21 PM 51.8°F 42.8°F 71% 29.74 in 5.0 miles SSE 9.2 mph - N/A   Haze
2:53 PM 51.1°F 43.0°F 74% 29.74 in 5.0 miles South 4.6 mph - N/A   Haze
3:53 PM 51.1°F 42.1°F 71% 29.72 in 4.0 miles ESE 3.5 mph - N/A   Haze
4:09 PM 50.0°F 42.8°F 76% 29.71 in 4.0 miles SE 5.8 mph - N/A   Haze
4:53 PM 51.1°F 42.1°F 71% 29.70 in 6.0 miles SSE 9.2 mph - N/A   Haze
5:53 PM 51.1°F 46.0°F 83% 29.67 in 6.0 miles SSE 11.5 mph 17.3 mph N/A   Haze
6:53 PM 52.0°F 48.9°F 89% 29.65 in 5.0 miles SSE 8.1 mph 19.6 mph 0.00 in   Overcast
7:53 PM 53.1°F 50.0°F 89% 29.63 in 5.0 miles Variable 6.9 mph 19.6 mph N/A   Overcast
8:53 PM 54.0°F 50.0°F 86% 29.61 in 6.0 miles SSE 13.8 mph 26.5 mph N/A   Overcast
9:53 PM 54.0°F 50.0°F 86% 29.60 in 6.0 miles SSE 9.2 mph 23.0 mph 0.00 in Rain Light Rain
10:53 PM 54.0°F 52.0°F 93% 29.58 in 5.0 miles SSE 13.8 mph 24.2 mph 0.00 in Rain Light Rain
11:53 PM 53.1°F 51.1°F 93% 29.56 in 6.0 miles South 12.7 mph 26.5 mph 0.01 in   Overcast
Moon Phase
Nov. 16 Nov. 20 Nov. 28 Dec. 06 Dec. 13
Sunrise:07:26 AM (PST) Moon Rise:10:30 AM (PST)11/16
Sunset:04:38 PM (PST) Moon Set:07:42 PM (PST)11/16

Copyright © 2014 The Weather Underground, Inc.